TimeEST,TemperatureF,Dew PointF,Humidity,Sea Level PressureIn,VisibilityMPH,Wind Direction,Wind SpeedMPH,Gust SpeedMPH,PrecipitationIn,Events,Conditions,WindDirDegrees,DateUTC
12:54 AM,17.1,14.0,88,29.94,-9999.0,North,-9999.0,-,0.01,,Unknown,0,2014-02-10 05:54:00
1:54 AM,17.1,12.9,84,29.94,-9999.0,North,-9999.0,-,0.01,,Unknown,0,2014-02-10 06:54:00
2:54 AM,16.0,12.0,84,29.93,-9999.0,North,-9999.0,-,N/A,,Unknown,0,2014-02-10 07:54:00
3:54 AM,15.1,10.9,84,29.94,-9999.0,North,-9999.0,-,0.01,,Unknown,0,2014-02-10 08:54:00
4:54 AM,12.9,9.0,84,29.96,-9999.0,North,-9999.0,-,N/A,,Unknown,0,2014-02-10 09:54:00
5:54 AM,12.0,8.1,84,29.99,-9999.0,North,-9999.0,-,N/A,,Unknown,0,2014-02-10 10:54:00
6:54 AM,10.9,7.0,84,30.01,-9999.0,North,-9999.0,-,N/A,,Unknown,0,2014-02-10 11:54:00
7:54 AM,12.0,8.1,84,30.04,-9999.0,North,-9999.0,-,N/A,,Unknown,0,2014-02-10 12:54:00
8:54 AM,12.9,8.1,81,30.05,-9999.0,North,-9999.0,-,N/A,,Unknown,0,2014-02-10 13:54:00
9:54 AM,16.0,5.0,62,30.06,-9999.0,North,-9999.0,-,N/A,,Unknown,0,2014-02-10 14:54:00
10:54 AM,17.1,5.0,59,30.07,-9999.0,North,-9999.0,-,N/A,,Unknown,0,2014-02-10 15:54:00
11:54 AM,17.1,8.1,68,30.06,-9999.0,North,-9999.0,-,N/A,,Unknown,0,2014-02-10 16:54:00
12:54 PM,17.1,7.0,65,30.06,-9999.0,North,-9999.0,-,N/A,,Unknown,0,2014-02-10 17:54:00
1:54 PM,19.0,7.0,59,30.06,-9999.0,North,-9999.0,-,N/A,,Unknown,0,2014-02-10 18:54:00
2:54 PM,17.1,8.1,68,30.08,-9999.0,North,-9999.0,-,N/A,,Unknown,0,2014-02-10 19:54:00
3:54 PM,18.0,3.0,52,30.09,-9999.0,North,-9999.0,-,N/A,,Unknown,0,2014-02-10 20:54:00
4:54 PM,17.1,7.0,65,30.11,-9999.0,North,-9999.0,-,N/A,,Unknown,0,2014-02-10 21:54:00
5:54 PM,15.1,6.1,68,30.14,-9999.0,North,-9999.0,-,N/A,,Unknown,0,2014-02-10 22:54:00
6:54 PM,10.9,5.0,77,30.16,-9999.0,North,-9999.0,-,N/A,,Unknown,0,2014-02-10 23:54:00
7:54 PM,8.1,3.9,83,30.18,-9999.0,North,-9999.0,-,N/A,,Unknown,0,2014-02-11 00:54:00
8:54 PM,5.0,1.0,84,30.19,-9999.0,North,-9999.0,-,N/A,,Unknown,0,2014-02-11 01:54:00
9:54 PM,3.0,-0.9,84,30.20,-9999.0,North,-9999.0,-,N/A,,Unknown,0,2014-02-11 02:54:00
10:54 PM,1.0,-2.9,83,30.21,-9999.0,North,-9999.0,-,N/A,,Unknown,0,2014-02-11 03:54:00
11:54 PM,-0.9,-5.1,83,30.22,-9999.0,North,-9999.0,-,N/A,,Unknown,0,2014-02-11 04:54:00